TimeMST,TemperatureF,Dew PointF,Humidity,Sea Level PressureIn,VisibilityMPH,Wind Direction,Wind SpeedMPH,Gust SpeedMPH,PrecipitationIn,Events,Conditions,WindDirDegrees,DateUTC
12:58 AM,54.7,14.5,20,29.91,10.0,ESE,4.6,-,N/A,,Clear,110,2013-10-20 07:58:00
1:58 AM,53.4,14.5,21,29.91,10.0,SSE,6.9,-,N/A,,Clear,150,2013-10-20 08:58:00
2:58 AM,51.3,14.9,24,29.91,10.0,SE,6.9,-,N/A,,Clear,130,2013-10-20 09:58:00
3:58 AM,52.2,14.5,22,29.90,10.0,SE,8.1,-,N/A,,Clear,140,2013-10-20 10:58:00
4:58 AM,50.0,13.8,24,29.91,10.0,ESE,5.8,-,N/A,,Clear,120,2013-10-20 11:58:00
5:58 AM,47.8,13.8,26,29.92,10.0,ESE,5.8,-,N/A,,Clear,120,2013-10-20 12:58:00
6:58 AM,48.4,13.5,25,29.93,10.0,SE,10.4,-,N/A,,Clear,130,2013-10-20 13:58:00
7:58 AM,56.5,14.9,19,29.93,10.0,SSE,3.5,-,N/A,,Clear,150,2013-10-20 14:58:00
8:58 AM,65.8,15.4,14,29.93,10.0,SE,4.6,-,N/A,,Clear,130,2013-10-20 15:58:00
9:58 AM,71.2,14.5,11,29.91,10.0,South,5.8,-,N/A,,Clear,170,2013-10-20 16:58:00
10:58 AM,73.4,14.0,10,29.91,10.0,WSW,3.5,-,N/A,,Clear,240,2013-10-20 17:58:00
11:58 AM,76.5,11.3,8,29.88,10.0,WNW,3.5,-,N/A,,Clear,290,2013-10-20 18:58:00
12:58 PM,79.5,16.3,9,29.86,10.0,North,5.8,-,N/A,,Clear,350,2013-10-20 19:58:00
1:58 PM,80.6,14.5,8,29.82,10.0,NNW,6.9,-,N/A,,Clear,330,2013-10-20 20:58:00
2:58 PM,81.3,13.8,8,29.81,10.0,NW,4.6,18.4,N/A,,Clear,320,2013-10-20 21:58:00
3:58 PM,81.3,12.0,7,29.80,10.0,NW,5.8,-,N/A,,Clear,310,2013-10-20 22:58:00
4:58 PM,80.6,14.5,8,29.80,10.0,NNW,9.2,-,N/A,,Clear,340,2013-10-20 23:58:00
5:58 PM,75.4,16.9,11,29.83,10.0,NNW,8.1,-,N/A,,Clear,340,2013-10-21 00:58:00
6:58 PM,71.8,16.9,12,29.84,10.0,NW,4.6,-,N/A,,Clear,320,2013-10-21 01:58:00
7:58 PM,68.4,14.2,12,29.86,10.0,NW,5.8,-,N/A,,Clear,310,2013-10-21 02:58:00
8:58 PM,64.4,15.8,15,29.86,10.0,West,6.9,-,N/A,,Clear,260,2013-10-21 03:58:00
9:58 PM,60.1,15.3,17,29.87,10.0,SSE,6.9,-,N/A,,Clear,160,2013-10-21 04:58:00
10:58 PM,58.1,15.1,19,29.88,10.0,South,6.9,-,N/A,,Clear,170,2013-10-21 05:58:00
11:58 PM,56.1,15.8,21,29.88,10.0,ESE,5.8,-,N/A,,Clear,120,2013-10-21 06:58:00